Location: *
(55.6049°S, 142.1985°W)
Time: 23:24:02
(UTC+00:00)

USA 307 - Pass Details

Date: 12 May 2021
Orbit: 566 x 577 km, 54.0° (Epoch: 10 May)

Event Time Altitude Azimuth Distance (km) Brightness Sun altitude
Exits shadow 15:27:28 21° 289° (WNW) 1,341 4.3 -14.7°
Maximum altitude 15:30:18 69° 8° (N) 631 3.1 -14.3°
Drops below altitude 10° 15:34:37 10° 91° (E) 1,908 6.9 -13.7°
Sets 15:36:54 0° 93° (E) 2,806 8.0 -13.4°
